TimeCST,TemperatureF,Dew PointF,Humidity,Sea Level PressureIn,VisibilityMPH,Wind Direction,Wind SpeedMPH,Gust SpeedMPH,PrecipitationIn,Events,Conditions,WindDirDegrees,DateUTC
12:15 AM,39.2,35.6,87,29.88,10.0,East,17.3,25.3,N/A,,Overcast,90,2012-11-10 06:15:00
12:35 AM,39.2,35.6,87,29.87,10.0,East,18.4,21.9,N/A,,Overcast,90,2012-11-10 06:35:00
12:55 AM,39.2,35.6,87,29.85,10.0,East,16.1,21.9,N/A,,Overcast,90,2012-11-10 06:55:00
1:15 AM,39.2,35.6,87,29.83,10.0,East,20.7,26.5,N/A,,Overcast,90,2012-11-10 07:15:00
1:35 AM,37.4,35.6,93,29.84,5.0,East,15.0,20.7,N/A,,Overcast,90,2012-11-10 07:35:00
1:55 AM,37.4,35.6,93,29.82,2.5,East,19.6,-,N/A,Snow,Light Snow,90,2012-11-10 07:55:00
2:15 AM,37.4,35.6,93,29.81,7.0,East,17.3,23.0,N/A,,Overcast,90,2012-11-10 08:15:00
2:35 AM,37.4,35.6,93,29.81,10.0,East,17.3,23.0,N/A,,Overcast,90,2012-11-10 08:35:00
2:55 AM,37.4,35.6,93,29.78,5.0,East,18.4,24.2,N/A,,Overcast,90,2012-11-10 08:55:00
3:15 AM,37.4,37.4,100,29.78,5.0,East,17.3,23.0,N/A,,Light Drizzle,90,2012-11-10 09:15:00
3:35 AM,37.4,37.4,100,29.76,3.0,East,17.3,26.5,N/A,Snow,Light Snow,90,2012-11-10 09:35:00
4:15 AM,37.4,37.4,100,29.74,2.5,East,19.6,28.8,N/A,,Overcast,90,2012-11-10 10:15:00
4:35 AM,37.4,37.4,100,29.76,3.0,ESE,15.0,26.5,N/A,Snow-Thunderstorm,Light Thunderstorms and Snow,110,2012-11-10 10:35:00
4:55 AM,37.4,37.4,100,29.72,3.0,East,17.3,29.9,0.03,Rain-Thunderstorm,Light Thunderstorms and Rain,90,2012-11-10 10:55:00
5:15 AM,37.4,37.4,100,29.72,5.0,East,20.7,24.2,N/A,,Overcast,80,2012-11-10 11:15:00
6:35 AM,39.2,37.4,93,29.70,2.0,East,15.0,-,N/A,,Unknown,80,2012-11-10 12:35:00
6:55 AM,39.2,37.4,93,29.70,2.0,East,13.8,19.6,N/A,Rain,Light Rain,80,2012-11-10 12:55:00
7:15 AM,39.2,39.2,100,29.70,1.8,East,11.5,-,N/A,Rain-Thunderstorm,Light Thunderstorms and Rain,90,2012-11-10 13:15:00
7:35 AM,41.0,39.2,93,29.67,1.0,East,15.0,-,N/A,Rain,Light Rain,90,2012-11-10 13:35:00
7:55 AM,41.0,39.2,93,29.67,1.2,East,12.7,21.9,N/A,Rain,Light Rain,90,2012-11-10 13:55:00
8:15 AM,41.0,41.0,100,29.67,1.8,East,12.7,18.4,N/A,,Overcast,90,2012-11-10 14:15:00
8:35 AM,41.0,41.0,100,29.67,1.8,East,13.8,-,N/A,,Unknown,100,2012-11-10 14:35:00
8:55 AM,41.0,41.0,100,29.64,1.2,East,13.8,20.7,N/A,Rain,Light Rain,90,2012-11-10 14:55:00
9:35 AM,41.0,41.0,100,29.62,1.5,East,15.0,-,N/A,,Overcast,90,2012-11-10 15:35:00
9:55 AM,41.0,41.0,100,29.61,1.8,East,15.0,19.6,N/A,,Overcast,90,2012-11-10 15:55:00
10:15 AM,41.0,41.0,100,29.60,1.5,East,13.8,17.3,N/A,,Overcast,100,2012-11-10 16:15:00
10:35 AM,41.0,41.0,100,29.60,1.0,East,11.5,18.4,N/A,,Overcast,90,2012-11-10 16:35:00
10:55 AM,41.0,41.0,100,29.59,1.0,East,11.5,-,N/A,,Overcast,90,2012-11-10 16:55:00
11:15 AM,42.8,41.0,93,29.58,1.0,East,11.5,-,N/A,,Overcast,90,2012-11-10 17:15:00
11:35 AM,42.8,41.0,93,29.57,1.2,East,13.8,19.6,N/A,,Overcast,90,2012-11-10 17:35:00
11:55 AM,42.8,42.8,100,29.56,0.8,East,12.7,-,N/A,Rain,Rain,90,2012-11-10 17:55:00
12:15 PM,42.8,42.8,100,29.55,1.2,East,10.4,16.1,N/A,,Overcast,90,2012-11-10 18:15:00
12:35 PM,42.8,42.8,100,29.54,1.0,East,10.4,-,N/A,,Light Drizzle,80,2012-11-10 18:35:00
12:55 PM,42.8,42.8,100,29.54,0.8,East,8.1,-,N/A,Rain,Light Rain,80,2012-11-10 18:55:00
1:15 PM,42.8,42.8,100,29.53,1.0,East,10.4,-,N/A,,Light Drizzle,90,2012-11-10 19:15:00
1:35 PM,42.8,42.8,100,29.52,0.8,East,10.4,-,N/A,Rain,Light Rain,90,2012-11-10 19:35:00
1:55 PM,42.8,42.8,100,29.52,1.0,East,6.9,-,N/A,,Overcast,100,2012-11-10 19:55:00
2:15 PM,42.8,42.8,100,29.49,0.8,East,13.8,-,N/A,,Overcast,80,2012-11-10 20:15:00
2:35 PM,44.6,44.6,100,29.48,0.2,East,13.8,-,N/A,Fog,Fog,80,2012-11-10 20:35:00
2:55 PM,44.6,44.6,100,29.48,0.2,East,10.4,-,N/A,Fog,Fog,80,2012-11-10 20:55:00
3:15 PM,44.6,44.6,100,29.48,0.2,East,8.1,-,N/A,Fog,Fog,80,2012-11-10 21:15:00
3:35 PM,44.6,44.6,100,29.47,0.2,East,10.4,-,N/A,Fog,Fog,80,2012-11-10 21:35:00
3:55 PM,44.6,44.6,100,29.48,0.2,East,9.2,-,N/A,Fog,Fog,80,2012-11-10 21:55:00
4:15 PM,44.6,44.6,100,29.48,0.2,East,6.9,-,N/A,Fog,Fog,80,2012-11-10 22:15:00
4:35 PM,44.6,44.6,100,29.49,0.2,ENE,4.6,-,N/A,Fog,Fog,60,2012-11-10 22:35:00
4:55 PM,44.6,44.6,100,29.49,0.2,East,6.9,-,N/A,Fog,Fog,90,2012-11-10 22:55:00
5:15 PM,44.6,44.6,100,29.49,0.2,East,6.9,-,N/A,Fog,Fog,80,2012-11-10 23:15:00
5:35 PM,44.6,44.6,100,29.50,0.2,East,3.5,-,N/A,Fog,Fog,100,2012-11-10 23:35:00
5:55 PM,44.6,44.6,100,29.50,0.2,East,3.5,-,N/A,Fog,Fog,90,2012-11-10 23:55:00
6:15 PM,44.6,44.6,100,29.50,0.2,East,3.5,-,N/A,Fog,Fog,90,2012-11-11 00:15:00
6:35 PM,46.4,46.4,100,29.48,0.2,East,4.6,-,N/A,Fog,Fog,80,2012-11-11 00:35:00
6:55 PM,46.4,46.4,100,29.46,0.2,East,4.6,-,N/A,Fog,Fog,90,2012-11-11 00:55:00
7:15 PM,46.4,46.4,100,29.45,0.5,East,4.6,-,N/A,Fog,Fog,90,2012-11-11 01:15:00
7:35 PM,46.4,46.4,100,29.43,0.2,ENE,6.9,-,N/A,Fog,Fog,70,2012-11-11 01:35:00
7:55 PM,46.4,46.4,100,29.43,0.2,East,8.1,-,N/A,Fog,Fog,80,2012-11-11 01:55:00
8:15 PM,46.4,46.4,100,29.43,0.2,Calm,Calm,-,0.01,Rain-Thunderstorm,Light Thunderstorms and Rain,0,2012-11-11 02:15:00
8:35 PM,46.4,46.4,100,29.50,0.8,South,5.8,-,0.18,Rain-Thunderstorm,Heavy Thunderstorms and Rain,190,2012-11-11 02:35:00
8:55 PM,46.4,46.4,100,29.47,1.8,SE,4.6,-,0.24,Rain,Heavy Rain,140,2012-11-11 02:55:00
9:35 PM,46.4,46.4,100,29.46,3.0,SSE,8.1,-,0.10,Rain,Light Rain,160,2012-11-11 03:35:00
10:15 PM,46.4,44.6,93,29.45,2.5,South,8.1,-,0.03,Rain,Rain,170,2012-11-11 04:15:00
10:35 PM,44.6,44.6,100,29.46,2.5,South,8.1,-,0.03,Rain,Light Rain,190,2012-11-11 04:35:00
10:55 PM,46.4,46.4,100,29.45,5.0,SSW,12.7,17.3,0.03,,Light Drizzle,200,2012-11-11 04:55:00
11:15 PM,46.4,46.4,100,29.46,5.0,SW,11.5,17.3,N/A,,Overcast,220,2012-11-11 05:15:00
11:35 PM,42.8,41.0,93,29.48,0.8,West,18.4,23.0,N/A,,Overcast,260,2012-11-11 05:35:00
11:55 PM,39.2,39.2,100,29.49,5.0,West,21.9,28.8,N/A,,Overcast,270,2012-11-11 05:55:00